Regional Weather Roundup
Issued by NWS

Home | Current Version | Previous Version | Text Only | Print | Product List | Glossary On
Versions: 1 2 3 4 5 6 7 8 9 10 11 12 13 14 15 16 17 18 19 20 21 22 23 24 25 26 27 28 29 30 31 32 33 34 35 36 37 38 39 40 41 42 43 44 45 46 47 48 49 50
000
ASUS45 KREV 271910
RWRNV
NEVADA REGIONAL WEATHER ROUNDUP
NATIONAL WEATHER SERVICE RENO NV
1200 PM PDT MON APR 27 2015

NOTE: "FAIR" INDICATES FEW OR NO CLOUDS BELOW 12,000 FEET WITH NO
SIGNIFICANT WEATHER AND/OR OBSTRUCTIONS TO VISIBILITY.

NVZ001-003-004-272000-
WESTERN NEVADA

CITY           SKY/WX    TMP DP  RH WIND       PRES   REMARKS
RENO           MOSUNNY   64  25  22 E14       30.25F
CARSON CITY    FAIR      63  25  23 NE12G18   30.26F
MINDEN         FAIR      61  27  27 W8        30.26
SLIDE MTN        N/A     36  21  55 E24         N/A
PYRAMID LAKE     N/A     61 N/A N/A S7          N/A
FALLON         MOSUNNY   61  29  29 MISG      30.26F
LOVELOCK       SUNNY     60  27  28 VRB6      30.26F
HAWTHORNE      SUNNY     61  23  23 NW5       30.26F
$$

NVZ002-CAZ072-073-272000-
NORTHERN AND CENTRAL SIERRA

CITY           SKY/WX    TMP DP  RH WIND       PRES   REMARKS
S. LAKE TAHOE  SUNNY     57  25  29 NE9G18    30.25S
TRUCKEE        SUNNY     61  30  31 SE6G18    30.25S
SQUAW VLY 8000   N/A     43  28  56 NE5         N/A
SUSANVILLE     SUNNY     63  32  31 E6        30.26
BLUE CANYON    SUNNY     64  27  24 VRB6      30.19S
MAMMOTH LAKES  FAIR      57  21  24 W8G16     30.28F
BRIDGEPORT     FAIR      57  25  29 VRB6      30.24F
$$

NVZ030-031-036-272000-
NORTHERN NEVADA

CITY           SKY/WX    TMP DP  RH WIND       PRES   REMARKS
ELKO           SUNNY     55  16  21 CALM      30.28F
WINNEMUCCA     SUNNY     57  26  30 N13G21    30.29F
WENDOVER       SUNNY     57  19  23 E8        30.28F
$$

NVZ035-037-272000-
CENTRAL NEVADA

CITY           SKY/WX    TMP DP  RH WIND       PRES   REMARKS
ELY            SUNNY     52  19  27 NW6       30.25F
EUREKA           N/A     52  14  22 NE5G16    30.27F
$$

NVZ013-014-272000-
SOUTH CENTRAL NEVADA

CITY           SKY/WX    TMP DP  RH WIND       PRES   REMARKS
TONOPAH        SUNNY     61  11  14 N12G17    30.21F
$$

NVZ017-020-022-272000-
SOUTHERN NEVADA

CITY           SKY/WX    TMP DP  RH WIND       PRES   REMARKS
LAS VEGAS      SUNNY     73  20  13 N12       30.05F
N. LAS VEGAS   SUNNY     72  17  12 NW13G24   30.07F
NELLIS AFB     SUNNY     73  25  16 NE13      30.06F
HENDERSON      SUNNY     70  24  17 NE13G18   30.10F
MERCURY        SUNNY     69  18  14 N13G23    30.12F
$$


USA.gov is the U.S. government's official web portal to all federal, state and local government web resources and services.